Date,TemperatureHighF,TemperatureAvgF,TemperatureLowF,DewpointHighF,DewpointAvgF,DewpointLowF,HumidityHigh,HumidityAvg,HumidityLow,PressureMaxIn,PressureMinIn,WindSpeedMaxMPH,WindSpeedAvgMPH,GustSpeedMaxMPH,PrecipitationSumIn
2013-1-1,31.0,26.0,22.0,22.0,13.9,9.0,84,60,50,0.00,40.00,0,0,0,0.00
2013-1-2,30.0,23.3,18.0,11.0,7.0,2.0,57,49,41,0.00,40.00,0,0,0,0.00
2013-1-3,38.0,24.1,16.0,11.0,3.1,-1.0,47,40,32,0.00,40.00,0,0,0,0.00
2013-1-4,42.0,31.0,21.0,11.0,6.0,0.0,40,34,26,0.00,40.00,0,0,0,0.00
2013-1-5,40.0,30.5,23.0,17.0,12.9,8.0,61,48,35,0.00,40.00,0,0,0,0.00
2013-1-6,41.0,31.2,23.0,16.0,11.7,8.0,52,44,33,0.00,40.00,0,0,0,0.00
2013-1-7,44.0,34.9,29.0,20.0,16.4,13.0,55,47,34,0.00,40.00,0,0,0,0.00
2013-1-8,43.0,38.3,32.0,19.0,16.1,12.0,47,40,31,0.00,40.00,0,0,0,0.00
2013-1-9,58.0,45.0,33.0,22.0,17.9,14.0,46,34,22,0.00,40.00,0,0,0,0.00
2013-1-10,49.0,32.5,15.0,24.0,18.6,11.0,91,60,29,0.00,40.00,0,0,0,0.00
2013-1-11,15.0,7.5,5.0,11.0,2.6,0.0,83,80,72,0.00,40.00,0,0,0,0.00
2013-1-12,14.0,8.0,3.0,5.0,2.1,-2.0,83,77,62,0.00,40.00,0,0,0,0.00
2013-1-13,16.0,9.8,4.0,3.0,0.3,-2.0,81,65,51,0.00,40.00,0,0,0,0.00
2013-1-14,17.0,12.2,9.0,3.0,-0.8,-4.0,62,55,48,0.00,40.00,0,0,0,0.00
2013-1-15,33.0,25.4,17.0,17.0,12.4,4.0,65,58,51,0.00,40.00,0,0,0,0.00
2013-1-16,41.0,36.3,32.0,17.0,14.4,11.0,51,41,36,0.00,40.00,0,0,0,0.00
2013-1-17,43.0,36.3,26.0,17.0,13.5,9.0,49,39,30,0.00,40.00,0,0,0,0.00
2013-1-18,50.0,42.5,37.0,17.0,13.6,11.0,34,31,26,0.00,40.00,0,0,0,0.00
2013-1-19,41.0,33.9,27.0,22.0,16.6,10.0,75,52,30,0.00,40.00,0,0,0,0.00
2013-1-20,36.0,20.5,14.0,18.0,13.0,9.0,85,73,42,0.00,40.00,0,0,0,0.00
2013-1-21,31.0,20.5,11.0,17.0,12.6,8.0,87,72,53,0.00,40.00,0,0,0,0.00
2013-1-22,46.0,36.4,25.0,14.0,11.6,8.0,63,37,25,0.00,40.00,0,0,0,0.00
2013-1-23,35.0,21.5,14.0,15.0,13.2,10.0,89,71,37,0.00,40.00,0,0,0,0.00
2013-1-24,50.0,38.4,21.0,23.0,17.7,12.0,75,44,34,0.00,40.00,0,0,0,0.00
2013-1-25,48.0,39.4,30.0,25.0,21.0,17.0,58,48,40,0.00,40.00,0,0,0,0.00
2013-1-26,54.0,43.9,35.0,28.0,23.5,22.0,57,45,31,0.00,40.00,0,0,0,0.00
2013-1-27,43.0,31.7,28.0,31.0,27.4,21.0,91,85,45,0.00,40.00,0,0,0,0.00
2013-1-28,33.0,26.9,22.0,25.0,16.3,7.0,91,65,49,0.00,40.00,0,0,0,0.00
2013-1-29,25.0,15.1,1.0,20.0,6.1,-6.0,88,68,51,0.00,40.00,0,0,0,0.00
2013-1-30,31.0,19.8,3.0,24.0,13.6,-2.0,89,76,59,0.00,40.00,0,0,0,0.00
2013-1-31,34.0,19.1,1.0,22.0,11.7,-5.0,78,73,61,0.00,40.00,0,0,0,0.00